Snowfall_Accumulation
0.0 0.0 0.0 0.0 0.0 0.0 0.0 0.0 0.0 0.0 0.0 0.0 0.0 0.0 0.0 0.0 0.0 0.0 0.0 0.0 0.0 0.0 0.0 0.0 0.0 0.0 0.0 0.0 0.0 0.0 0.0 0.0 0.0 0.0 0.0 0.0 0.0 0.0 0.0 0.0 0.0 0.0 0.0 0.0
0.0 0.0 0.0 0.0 0.0 0.0 0.0 0.0 0.0 0.0 0.0 0.0 0.0 0.0 0.0 0.0 0.0 0.0 0.0 0.0 0.0 0.0 0.0 0.0 0.0 0.0 0.0 0.0 0.0 0.0 0.0 0.0 0.0 0.0 0.0 0.0 0.0 0.0 0.0 0.0 0.0 0.0 0.0 0.0
0.0 0.0 0.0 0.0 0.0 0.0 0.0 0.0 0.0 0.0 0.0 0.0 0.0 0.0 0.0 0.0 0.0 0.0 0.0 0.0 0.0 0.0 0.0 0.0 0.0 0.0 0.0 0.0 0.0 0.0 0.0 0.0 0.0 0.0 0.0 0.0 0.0 0.0 0.0 0.0 0.0 0.0 0.0 0.0
0.0 0.0 0.0 0.0 0.0 0.0 0.0 0.0 0.0 0.0 0.0 0.0 0.0 0.0 0.0 0.0 0.0 0.0 0.0 0.0 0.0 0.0 0.0 0.0 0.0 0.0 0.0 0.0 0.0 0.0 0.0 0.0 0.0 0.0 0.0 0.0 0.0 0.0 0.0 0.0 0.0 0.0 0.0 0.0
0.0 0.0 0.0 0.0 0.0 0.0 0.0 0.0 0.0 0.0 0.0 0.0 0.0 0.0 0.0 0.0 0.0 0.0 0.0 0.0 0.0 0.0 0.0 0.0 0.0 0.0 0.0 0.0 0.0 0.0 0.0 0.0 0.0 0.0 0.0 0.0 0.0 0.0 0.0 0.0 0.0 0.0 0.0 0.0
0.0 0.0 0.0 0.0 0.0 0.0 0.0 0.0 0.0 0.0 0.0 0.2 0.0 0.0 0.0 0.0 0.0 0.0 0.0 0.0 0.0 0.0 0.0 0.0 0.0 0.0 0.0 0.0 0.0 0.0 0.0 0.0 0.0 0.0 0.0 0.0 0.0 0.0 0.0 0.0 0.0 0.0 0.0 0.0
0.0 0.0 0.0 0.0 0.0 0.0 0.0 0.0 0.3 0.6 1.7 0.8 0.0 0.1 0.0 0.0 0.0 0.0 0.0 0.0 0.0 0.0 0.0 0.0 0.0 0.0 0.0 0.0 0.0 0.0 0.0 0.0 0.0 0.0 0.0 0.0 0.0 0.0 0.0 0.0 0.0 0.0 0.0 0.0
0.0 0.0 0.0 0.0 0.0 0.0 0.0 0.0 0.7 2.9 2.0 0.5 0.1 0.3 0.0 0.0 0.0 0.0 0.0 0.0 0.0 0.0 0.0 0.0 0.0 0.0 0.0 0.0 0.0 0.0 0.0 0.0 0.0 0.0 0.0 0.0 0.0 0.0 0.0 0.0 0.0 0.0 0.0 0.0
0.0 0.0 0.0 0.0 0.0 0.0 0.0 0.0 0.0 0.2 4.7 3.2 0.0 0.0 0.0 0.0 0.0 0.0 0.0 0.0 0.0 0.0 0.0 0.0 0.0 0.0 0.0 0.0 0.0 0.0 0.0 0.0 0.0 0.0 0.0 0.0 0.0 0.0 0.0 0.0 0.0 0.0 0.0 0.0
0.0 0.0 0.0 0.0 0.0 0.0 0.0 0.0 0.4 0.4 5.0 4.0 0.0 0.0 0.0 0.0 0.0 0.0 0.0 0.0 0.0 0.0 0.0 0.0 0.0 0.0 0.0 0.0 0.0 0.0 0.0 0.0 0.0 0.0 0.0 0.0 0.0 0.0 0.0 0.0 0.0 0.0 0.0 0.0
0.0 0.0 0.0 0.0 0.0 0.0 0.0 0.0 0.0 0.0 0.4 2.5 2.1 0.2 0.0 0.0 0.0 0.0 0.0 0.0 0.0 0.0 0.0 0.0 0.0 0.0 0.0 0.0 0.0 0.0 0.0 0.0 0.0 0.0 0.0 0.0 0.0 0.0 0.0 0.0 0.0 0.0 0.0 0.0
0.0 0.0 1.3 0.0 0.0 0.0 0.0 0.0 0.0 0.8 0.5 0.7 1.5 1.0 0.0 0.0 0.0 0.0 0.0 0.0 0.0 0.0 0.0 0.0 0.0 0.0 0.0 0.0 0.0 0.0 0.0 0.0 0.0 0.0 0.0 0.0 0.0 0.0 0.0 0.0 0.0 0.0 0.0 0.0
0.0 0.6 3.9 1.6 0.1 0.0 0.0 0.0 0.0 0.0 0.2 1.2 4.7 0.9 0.0 0.0 0.0 0.0 0.0 0.0 0.0 0.0 0.0 0.0 0.0 0.0 0.0 0.0 0.0 0.0 0.0 0.0 0.0 0.0 0.0 0.0 0.0 0.0 0.0 0.0 0.0 0.0 0.0 0.0
nan 0.8 1.4 1.4 0.1 0.0 0.1 0.0 0.0 0.0 1.8 1.1 0.5 0.1 0.0 0.0 0.0 0.0 0.0 0.0 0.0 0.0 0.0 0.0 0.0 0.0 0.0 0.0 0.0 0.0 0.0 0.0 0.0 0.0 0.0 0.0 0.0 0.0 0.0 0.0 0.1 0.1 0.1 0.1
0.0 3.2 0.3 0.2 0.0 0.0 0.0 0.0 0.0 0.0 0.1 0.5 0.1 0.0 0.0 0.0 0.0 0.0 0.0 0.0 0.0 0.0 0.0 0.0 0.0 0.0 0.0 0.0 0.0 0.0 0.0 0.0 0.0 0.0 0.0 0.0 0.0 0.0 0.1 0.1 0.1 0.1 0.1 0.1
0.1 4.6 0.8 3.0 0.0 0.0 0.0 0.0 0.0 0.0 0.0 0.0 0.0 0.1 0.0 0.0 0.0 0.0 0.0 0.0 0.0 0.0 0.0 0.0 0.0 0.0 0.0 0.0 0.0 0.0 0.0 0.0 0.0 0.0 0.1 0.1 0.1 0.2 0.2 0.2 0.3 0.2 0.2 0.2
0.9 3.8 8.4 13.4 0.3 0.7 6.5 0.6 0.0 0.0 0.0 0.0 0.2 0.0 0.0 0.0 0.0 0.0 0.0 0.0 0.0 0.0 0.0 0.0 0.0 0.0 0.0 0.0 0.0 0.0 0.0 0.0 0.1 0.2 0.4 0.4 0.3 0.4 0.3 0.2 0.3 0.3 0.2 0.3
1.5 5.7 7.2 20.0 10.0 34.8 2.4 0.0 0.0 0.0 0.0 0.0 0.0 0.2 0.2 0.1 0.0 0.0 0.0 0.0 0.0 0.0 0.0 0.0 0.0 0.0 0.0 0.0 0.0 0.0 0.1 0.2 0.3 0.6 0.9 0.4 0.6 0.9 0.3 0.3 0.3 0.3 0.3 0.3
0.0 0.6 10.9 31.3 17.7 1.7 0.1 0.1 0.0 0.0 0.1 0.6 0.4 0.3 0.2 0.0 0.0 0.0 0.0 0.0 0.0 0.0 0.0 0.0 0.0 0.0 0.0 0.0 0.0 0.2 0.3 0.3 0.4 0.3 0.4 0.3 1.1 2.2 0.6 2.3 0.5 0.4 1.4 0.9
0.2 0.1 2.1 24.5 35.5 26.4 2.2 0.6 0.3 0.6 1.5 1.0 1.4 1.2 0.9 0.2 1.1 0.0 0.0 0.0 0.0 0.0 0.0 0.0 0.0 0.0 0.1 0.1 0.2 0.3 0.2 0.3 0.4 0.4 0.4 0.4 1.3 3.1 2.5 1.3 2.1 2.3 2.1 2.2
5.6 9.7 13.2 13.0 22.8 8.3 1.1 0.3 0.0 5.3 5.4 0.6 0.6 1.3 0.9 1.8 0.6 0.1 0.0 0.0 0.0 0.0 0.0 0.0 0.1 0.1 0.2 0.4 0.5 0.3 0.2 0.3 0.3 0.5 0.6 0.7 1.1 3.2 2.2 2.5 1.9 3.2 3.3 1.7
2.9 10.5 21.1 15.7 23.0 27.3 0.6 0.1 1.3 1.6 0.2 0.3 0.6 0.1 0.2 0.0 0.0 0.0 0.0 0.0 0.0 0.0 0.0 0.0 0.3 0.2 0.3 0.5 1.2 0.5 0.4 0.3 0.7 1.0 1.4 2.3 3.7 3.6 3.7 5.9 3.7 4.8 4.7 4.5
5.4 1.9 8.2 3.6 5.8 0.6 0.9 1.2 0.3 0.2 0.6 0.4 0.2 0.1 0.0 0.1 0.1 0.0 0.0 0.0 0.0 0.0 0.1 0.2 0.4 0.4 0.2 0.5 1.4 2.8 0.6 0.8 1.5 3.6 4.7 5.4 4.9 4.9 5.3 7.8 4.7 5.9 4.8 5.7
0.6 0.3 2.4 2.8 0.2 0.3 0.1 0.0 0.1 0.2 0.1 0.0 0.1 0.1 0.2 0.2 0.2 0.5 0.4 0.3 0.2 0.2 0.4 0.6 1.0 1.1 0.8 0.9 1.1 1.6 1.5 1.8 6.8 7.1 4.3 3.4 4.2 3.2 4.0 5.2 5.9 7.6 5.9 4.7
0.4 0.3 1.0 1.6 0.2 0.0 0.0 0.0 0.1 0.2 0.2 0.2 0.2 0.2 0.1 0.2 1.0 0.6 0.7 0.6 0.4 0.6 0.7 0.9 1.3 1.2 1.5 1.4 1.4 2.2 2.7 3.6 4.6 4.7 3.0 4.2 5.3 5.7 3.5 2.9 7.0 4.8 2.4 7.3
0.0 0.0 0.2 1.7 0.0 0.0 0.1 0.0 0.1 0.1 0.1 0.1 0.2 0.5 0.3 0.4 0.5 0.7 0.6 0.4 0.6 1.3 1.4 1.7 1.7 2.0 2.1 2.5 2.8 3.8 5.6 5.4 5.3 3.1 4.3 4.4 4.4 3.7 3.4 3.8 4.2 nan nan nan
Water_Equivalent
0.00 0.00 0.00 0.00 0.00 0.00 0.00 0.00 0.00 0.00 0.00 0.00 0.00 0.00 0.00 0.00 0.00 0.00 0.00 0.00 0.00 0.00 0.00 0.00 0.00 0.00 0.00 0.00 0.00 0.00 0.00 0.00 0.00 0.00 0.00 0.00 0.00 0.00 0.00 0.00 0.00 0.00 0.00 0.00
0.00 0.00 0.00 0.00 0.00 0.00 0.00 0.00 0.00 0.00 0.00 0.00 0.00 0.00 0.00 0.00 0.00 0.00 0.00 0.00 0.00 0.00 0.00 0.00 0.00 0.00 0.00 0.00 0.00 0.00 0.00 0.00 0.00 0.00 0.00 0.00 0.00 0.00 0.00 0.00 0.00 0.00 0.00 0.00
0.00 0.00 0.00 0.00 0.00 0.00 0.00 0.00 0.00 0.00 0.00 0.00 0.00 0.00 0.00 0.00 0.00 0.00 0.00 0.00 0.00 0.00 0.00 0.00 0.00 0.00 0.00 0.00 0.00 0.00 0.00 0.00 0.00 0.00 0.00 0.00 0.00 0.00 0.00 0.00 0.00 0.00 0.00 0.00
0.00 0.00 0.00 0.00 0.00 0.00 0.00 0.00 0.00 0.00 0.00 0.00 0.00 0.00 0.00 0.00 0.00 0.00 0.00 0.00 0.00 0.00 0.00 0.00 0.00 0.00 0.00 0.00 0.00 0.00 0.00 0.00 0.00 0.00 0.00 0.00 0.00 0.00 0.00 0.00 0.00 0.00 0.00 0.00
0.00 0.00 0.00 0.00 0.00 0.00 0.00 0.00 0.00 0.00 0.00 0.00 0.00 0.00 0.00 0.00 0.00 0.00 0.00 0.00 0.00 0.00 0.00 0.00 0.00 0.00 0.00 0.00 0.00 0.00 0.00 0.00 0.00 0.00 0.00 0.00 0.00 0.00 0.00 0.00 0.00 0.00 0.00 0.00
0.00 0.00 0.00 0.00 0.00 0.00 0.00 0.00 0.00 0.00 0.00 0.04 0.00 0.00 0.00 0.00 0.00 0.00 0.00 0.00 0.00 0.00 0.00 0.00 0.00 0.00 0.00 0.00 0.00 0.00 0.00 0.00 0.00 0.00 0.00 0.00 0.00 0.00 0.00 0.00 0.00 0.00 0.00 0.00
0.00 0.00 0.00 0.00 0.00 0.00 0.00 0.00 0.07 0.12 0.30 0.14 0.00 0.02 0.00 0.00 0.00 0.00 0.00 0.00 0.00 0.00 0.00 0.00 0.00 0.00 0.00 0.00 0.00 0.00 0.00 0.00 0.00 0.00 0.00 0.00 0.00 0.00 0.00 0.00 0.00 0.00 0.00 0.00
0.00 0.00 0.00 0.00 0.00 0.00 0.00 0.00 0.13 0.39 0.32 0.11 0.02 0.05 0.00 0.00 0.00 0.00 0.00 0.00 0.00 0.00 0.00 0.00 0.00 0.00 0.00 0.00 0.00 0.00 0.00 0.00 0.00 0.00 0.00 0.00 0.00 0.00 0.00 0.00 0.00 0.00 0.00 0.00
0.00 0.00 0.00 0.00 0.00 0.00 0.00 0.00 0.00 0.05 0.59 0.49 0.01 0.00 0.00 0.00 0.00 0.00 0.00 0.00 0.00 0.00 0.00 0.00 0.00 0.00 0.00 0.00 0.00 0.00 0.00 0.00 0.00 0.00 0.00 0.00 0.00 0.00 0.00 0.00 0.00 0.00 0.00 0.00
0.00 0.01 0.00 0.00 0.00 0.00 0.00 0.00 0.07 0.09 0.67 0.48 0.00 0.00 0.00 0.00 0.00 0.00 0.00 0.00 0.00 0.00 0.00 0.00 0.00 0.00 0.00 0.00 0.00 0.00 0.00 0.00 0.00 0.00 0.00 0.00 0.00 0.00 0.00 0.00 0.00 0.00 0.00 0.00
0.00 0.00 0.01 0.00 0.00 0.00 0.00 0.00 0.00 0.00 0.08 0.39 0.31 0.03 0.00 0.00 0.00 0.00 0.00 0.00 0.00 0.00 0.00 0.00 0.00 0.00 0.00 0.00 0.00 0.00 0.00 0.00 0.00 0.00 0.00 0.00 0.00 0.00 0.00 0.00 0.00 0.00 0.00 0.00
0.00 0.00 0.23 0.00 0.00 0.00 0.00 0.00 0.00 0.16 0.08 0.13 0.27 0.16 0.00 0.00 0.00 0.00 0.00 0.00 0.00 0.00 0.00 0.00 0.00 0.00 0.00 0.00 0.00 0.00 0.00 0.00 0.00 0.00 0.00 0.00 0.00 0.00 0.00 0.00 0.00 0.00 0.00 0.00
0.00 0.12 0.74 0.33 0.02 0.00 0.00 0.00 0.00 0.00 0.05 0.21 0.70 0.14 0.00 0.00 0.00 0.00 0.00 0.00 0.00 0.00 0.00 0.00 0.00 0.00 0.00 0.00 0.00 0.00 0.00 0.00 0.00 0.00 0.00 0.00 0.00 0.00 0.00 0.00 0.00 0.01 0.01 0.01
nan 0.16 0.24 0.25 0.02 0.00 0.02 0.00 0.00 0.00 0.34 0.23 0.11 0.02 0.00 0.00 0.00 0.00 0.00 0.00 0.00 0.00 0.00 0.00 0.00 0.00 0.00 0.00 0.00 0.00 0.00 0.00 0.00 0.00 0.00 0.00 0.00 0.00 0.00 0.00 0.01 0.01 0.01 0.01
0.01 0.50 0.06 0.04 0.00 0.00 0.00 0.00 0.00 0.01 0.01 0.08 0.02 0.00 0.00 0.00 0.00 0.00 0.00 0.00 0.00 0.00 0.00 0.00 0.00 0.00 0.00 0.00 0.00 0.00 0.00 0.00 0.00 0.00 0.00 0.00 0.00 0.01 0.01 0.02 0.02 0.02 0.02 0.01
0.03 0.80 0.15 0.53 0.01 0.00 0.01 0.00 0.00 0.00 0.00 0.00 0.01 0.02 0.00 0.00 0.00 0.00 0.00 0.00 0.00 0.00 0.00 0.00 0.00 0.00 0.00 0.00 0.00 0.00 0.00 0.00 0.00 0.01 0.01 0.02 0.02 0.04 0.04 0.04 0.06 0.03 0.03 0.03
0.17 0.81 1.30 1.86 0.05 0.12 0.79 0.11 0.00 0.00 0.00 0.00 0.07 0.00 0.00 0.00 0.00 0.00 0.00 0.00 0.00 0.00 0.00 0.00 0.00 0.00 0.00 0.00 0.00 0.00 0.00 0.00 0.02 0.03 0.07 0.08 0.05 0.08 0.05 0.04 0.06 0.05 0.04 0.05
0.32 1.10 1.45 2.82 1.47 3.64 0.43 0.00 0.00 0.00 0.00 0.00 0.01 0.03 0.03 0.01 0.00 0.00 0.00 0.00 0.00 0.00 0.00 0.00 0.00 0.00 0.00 0.00 0.00 0.00 0.02 0.03 0.05 0.11 0.17 0.07 0.10 0.13 0.04 0.04 0.05 0.04 0.04 0.05
0.01 0.14 1.55 3.74 2.19 0.30 0.03 0.01 0.00 0.01 0.02 0.07 0.06 0.04 0.03 0.00 0.00 0.00 0.00 0.00 0.00 0.00 0.00 0.00 0.00 0.00 0.00 0.00 0.01 0.02 0.04 0.04 0.06 0.05 0.06 0.04 0.16 0.30 0.08 0.34 0.06 0.05 0.21 0.14
0.03 0.03 0.43 3.11 4.03 2.84 0.24 0.09 0.05 0.09 0.18 0.13 0.21 0.17 0.12 0.03 0.15 0.00 0.00 0.00 0.00 0.00 0.00 0.00 0.00 0.01 0.01 0.01 0.02 0.04 0.02 0.03 0.04 0.04 0.05 0.05 0.17 0.41 0.32 0.19 0.29 0.35 0.34 0.33
0.69 1.23 1.64 1.80 2.78 1.24 0.20 0.06 0.00 0.63 0.51 0.10 0.11 0.20 0.13 0.24 0.09 0.01 0.00 0.00 0.00 0.00 0.00 0.00 0.01 0.02 0.02 0.04 0.06 0.04 0.03 0.03 0.03 0.05 0.05 0.08 0.14 0.44 0.28 0.34 0.29 0.42 0.46 0.24
0.35 1.12 2.37 1.82 2.53 2.99 0.11 0.02 0.14 0.19 0.04 0.06 0.10 0.01 0.04 0.01 0.00 0.00 0.00 0.00 0.00 0.00 0.00 0.01 0.03 0.02 0.03 0.06 0.11 0.06 0.05 0.03 0.06 0.10 0.13 0.29 0.50 0.48 0.49 0.86 0.52 0.71 0.64 0.63
0.63 0.24 0.90 0.47 0.86 0.13 0.19 0.19 0.06 0.03 0.11 0.06 0.03 0.01 0.00 0.02 0.01 0.00 0.00 0.00 0.00 0.00 0.03 0.03 0.05 0.04 0.03 0.06 0.14 0.24 0.06 0.08 0.15 0.52 0.74 0.76 0.67 0.67 0.69 1.05 0.61 0.86 0.73 0.87
0.12 0.08 0.39 0.39 0.04 0.05 0.01 0.01 0.01 0.03 0.03 0.01 0.02 0.02 0.04 0.03 0.02 0.09 0.07 0.04 0.03 0.03 0.05 0.07 0.12 0.13 0.09 0.10 0.12 0.14 0.13 0.18 1.13 1.07 0.55 0.42 0.54 0.43 0.53 0.75 0.87 1.21 0.91 0.72
0.10 0.08 0.25 0.31 0.04 0.01 0.01 0.01 0.02 0.04 0.04 0.04 0.04 0.03 0.02 0.03 0.13 0.08 0.09 0.08 0.05 0.06 0.08 0.09 0.14 0.11 0.13 0.12 0.13 0.19 0.22 0.39 0.64 0.68 0.33 0.52 0.76 0.84 0.47 0.38 0.70 0.54 0.29 0.86
0.00 0.00 0.04 0.24 0.00 0.00 0.01 0.00 0.01 0.03 0.02 0.02 0.04 0.06 0.05 0.07 0.06 0.08 0.08 0.05 0.07 0.13 0.13 0.15 0.16 0.17 0.14 0.18 0.21 0.30 0.58 0.59 0.61 0.35 0.55 0.57 0.57 0.51 0.46 0.47 0.46 nan nan nan
SL_Ratio
nan nan nan nan nan nan nan nan nan nan nan nan nan nan nan nan nan nan nan nan nan nan nan nan nan nan nan nan nan nan nan nan nan nan nan nan nan nan nan nan nan nan nan nan
nan nan nan nan nan nan nan nan nan nan nan nan nan nan nan nan nan nan nan nan nan nan nan nan nan nan nan nan nan nan nan nan nan nan nan nan nan nan nan nan nan nan nan nan
nan nan nan nan nan nan nan nan nan nan nan nan nan nan nan nan nan nan nan nan nan nan nan nan nan nan nan nan nan nan nan nan nan nan nan nan nan nan nan nan nan nan nan nan
nan nan nan nan nan nan nan nan nan nan nan nan nan 5.0 nan nan nan nan nan nan nan nan nan nan nan nan nan nan nan nan nan nan nan nan nan nan nan nan nan nan nan nan nan nan
nan nan nan nan nan nan nan nan nan nan nan nan nan nan nan nan nan nan nan nan nan nan nan nan nan nan nan nan nan nan nan nan nan nan nan nan nan nan nan nan nan nan nan nan
nan nan nan nan nan nan nan nan nan nan nan 5.2 nan nan nan nan nan nan nan nan nan nan nan nan nan nan nan nan nan nan nan nan nan nan nan nan nan nan nan nan nan nan nan nan
nan nan nan nan nan nan nan nan 5.0 5.2 5.6 5.2 nan 4.9 nan nan nan nan nan nan nan nan nan nan nan nan nan nan nan nan nan nan nan nan nan nan nan nan nan nan nan nan nan nan
nan nan nan nan nan nan nan nan 4.9 7.5 6.0 4.9 5.1 5.6 3.3 nan nan nan nan nan nan nan nan nan nan nan nan nan nan nan nan nan nan nan nan nan nan nan nan nan nan nan nan nan
4.0 3.8 nan nan nan nan nan nan nan 5.4 8.0 6.4 4.1 nan nan nan nan nan nan nan nan nan nan nan nan nan nan nan nan nan nan nan nan nan nan nan nan nan nan nan nan nan nan nan
nan 4.4 nan nan nan nan nan nan 5.3 5.0 7.4 8.2 nan nan nan nan nan nan nan nan nan nan nan nan nan nan nan nan nan nan nan nan nan nan nan nan nan nan nan nan nan nan nan nan
nan 10.0 3.6 nan nan nan nan nan nan nan 5.0 6.6 6.8 5.7 nan nan nan nan nan nan nan nan nan nan nan nan nan nan nan nan nan nan nan nan nan nan nan nan nan nan nan nan nan nan
nan nan 5.7 4.5 nan nan nan nan nan 4.9 6.1 5.6 5.6 6.5 nan nan nan nan nan nan nan nan nan nan nan nan nan nan nan nan nan nan nan nan nan nan nan nan nan nan nan nan nan 3.3
nan 4.9 5.2 4.9 3.4 nan 5.0 nan nan nan 4.6 5.8 6.6 5.9 nan nan nan nan nan nan nan nan nan nan nan nan nan nan nan nan nan nan nan nan nan nan nan nan nan nan nan 4.4 4.0 4.2
nan 4.9 5.9 5.6 5.7 nan 5.0 nan nan nan 5.3 4.7 4.6 3.7 nan nan nan nan nan nan nan nan nan nan nan nan nan nan nan nan nan nan nan nan nan nan nan nan nan 5.6 4.7 4.4 4.6 5.0
4.2 6.3 5.4 5.2 5.0 nan nan 5.0 0.0 4.3 4.9 6.8 5.5 5.0 nan nan nan nan nan nan nan nan nan nan nan nan nan nan nan nan nan nan nan nan nan nan 5.0 4.3 4.7 4.7 5.0 5.0 5.1 5.4
4.8 5.7 5.2 5.6 5.2 3.3 4.1 nan nan nan nan nan 3.2 3.2 nan nan nan nan nan nan nan nan nan nan nan nan nan nan nan nan nan nan 4.2 4.4 4.7 4.9 4.8 5.0 5.3 5.4 5.6 5.8 5.7 5.6
5.0 4.7 6.4 7.2 4.9 6.0 8.2 5.4 0.0 nan nan nan 2.7 2.1 nan nan nan nan nan nan nan nan nan nan nan nan nan nan nan nan nan 4.2 5.2 6.0 5.4 5.3 5.5 5.7 5.7 5.6 5.6 5.6 5.4 5.4
4.6 5.2 5.0 7.1 6.8 9.6 5.5 nan nan nan nan nan 7.1 6.9 6.3 6.6 nan nan nan nan nan nan nan nan nan nan nan nan nan 4.5 5.0 5.8 6.3 5.9 5.4 5.8 6.1 6.5 6.0 5.9 6.0 6.5 7.1 6.9
3.6 4.3 7.1 8.4 8.1 5.6 5.5 8.1 6.3 6.3 6.5 8.1 7.4 6.9 6.5 0.0 nan nan nan nan nan nan nan nan nan nan nan 10.0 5.0 7.4 6.7 6.4 6.6 6.0 6.5 6.1 6.6 7.2 7.3 6.8 7.8 8.5 6.7 6.3
4.7 4.4 4.8 7.9 8.8 9.3 9.1 7.5 6.8 6.5 8.2 7.8 6.7 7.0 7.2 6.5 7.5 7.5 nan nan nan nan nan nan nan 5.0 6.1 6.5 7.4 7.4 8.3 7.8 8.0 8.3 8.3 8.2 7.5 7.4 7.7 7.1 7.3 6.4 6.2 6.7
8.1 7.8 8.0 7.2 8.2 6.6 5.2 5.2 4.3 8.4 10.7 6.6 5.9 6.6 6.9 7.5 6.7 5.9 nan nan nan nan nan nan 5.4 7.3 8.4 9.8 8.9 8.5 7.8 9.9 10.3 11.1 10.7 9.0 8.1 7.4 7.7 7.4 6.5 7.6 7.1 7.1
8.2 9.4 8.9 8.6 9.1 9.1 5.9 6.5 9.7 8.4 6.3 5.1 6.0 5.4 5.9 5.7 5.3 6.7 0.0 nan nan nan nan 6.1 8.3 7.9 9.0 8.5 10.5 9.0 7.8 9.4 10.7 10.5 10.1 7.8 7.4 7.6 7.4 6.9 7.1 6.8 7.2 7.2
8.6 7.9 9.0 7.8 6.8 4.8 5.0 6.3 5.5 5.5 5.3 5.8 5.4 5.9 5.5 6.7 6.4 5.0 5.0 5.6 5.0 5.0 5.8 6.6 8.2 8.0 7.3 8.4 10.0 11.3 9.9 10.5 9.7 6.9 6.4 7.2 7.3 7.2 7.7 7.4 7.7 6.8 6.6 6.5
5.2 3.9 6.3 7.3 5.6 5.7 5.5 4.7 4.9 5.4 5.6 6.1 4.7 5.4 5.9 8.0 7.5 5.8 5.9 6.8 6.8 6.6 7.7 8.5 8.6 8.3 9.5 9.0 9.2 11.1 11.3 9.8 6.0 6.6 7.9 8.1 7.8 7.5 7.7 6.9 6.7 6.3 6.4 6.5
4.3 3.5 4.2 5.0 4.2 3.9 5.2 5.0 5.4 5.3 5.2 5.5 5.7 5.6 7.0 7.3 7.3 6.6 7.6 7.1 7.9 9.5 9.4 9.2 9.8 10.8 11.0 11.5 11.6 11.6 12.1 9.2 7.3 6.9 8.9 8.0 6.9 6.8 7.4 7.6 10.0 8.9 8.4 8.6
10.0 5.0 5.3 7.2 nan 4.0 4.2 5.0 4.1 4.9 5.7 5.5 6.4 7.4 6.5 6.0 7.7 8.9 8.2 7.9 8.6 10.6 10.5 10.9 10.7 12.2 14.4 13.5 12.9 12.5 9.7 9.2 8.8 8.9 7.7 7.7 7.7 7.1 7.4 8.0 9.1 nan nan nan